Simultaneous Nadir Overpasses (SNOs) Predictions

Prediction of SNOs between AQUA and METOP-B Satellite Orbit:

Table of predicted SNOs for the next 14.0 days since TLE Epoch: 12/5/2025
Index Date (AQUA) Time (AQUA) Lat,Lon (AQUA) SZA (AQUA ) Date (METOP-B) Time (METOP-B) Lat,Lon (METOP-B) SZA (METOP-B ) Distance(km) Time Diff (sec)
1 12/06/2025 00:28:03 -78.12, -5.59 79.43 12/06/2025 00:27:45 -78.13, -5.62 79.42 1.38 18
2 12/06/2025 01:17:22 78.17, 161.83 100.63 12/06/2025 01:18:26 78.15, 161.77 100.60 3.45 64
3 12/08/2025 11:36:29 -78.11,-172.59 79.17 12/08/2025 11:35:33 -78.12,-172.66 79.17 1.69 56
4 12/08/2025 12:25:48 78.17, -5.18 100.89 12/08/2025 12:26:13 78.17, -5.07 100.89 2.45 25
5 12/10/2025 23:34:12 78.15,-172.12 101.10 12/10/2025 23:34:01 78.14,-172.18 101.08 2.12 11
6 12/11/2025 00:23:29 -78.18, -4.58 78.88 12/11/2025 00:24:41 -78.17, -4.68 78.88 2.52 72
7 12/13/2025 10:42:34 78.12, 21.00 101.25 12/13/2025 10:41:48 78.14, 20.88 101.26 3.21 46
8 12/13/2025 11:31:52 -78.19,-171.67 78.69 12/13/2025 11:32:28 -78.17,-171.60 78.70 2.69 36
9 12/15/2025 21:50:49 77.87,-144.78 101.14 12/15/2025 21:49:43 77.80,-147.78 101.05 70.79 66
10 12/15/2025 22:40:12 -78.15, 21.52 78.59 12/15/2025 22:40:15 -78.17, 21.42 78.58 2.88 3
11 12/18/2025 09:48:32 -78.19,-145.65 78.48 12/18/2025 09:48:02 -78.16,-145.60 78.51 3.70 30



Historial Predications of SNOs between AQUA and METOP-B
